AFR1A LFMN-LGSR

Flight info

Callsign AFR1A
Flight time N/A
Altitude 37000
Route SODRI DCT RAPUR DCT RATAP DCT BTA DCT DOKAR DCT SUNEV DCT INGAB DCT RUTOM DCT TRL UM601 MIL/N0392F230 B34 PEXAN
Aircraft A319/M-SDE3FGHIRWY/LB1

Departure

Time 2026-05-01 12:36
Airport Nice-Côte d'Azur Airport (LFMN)

Arrival

Time N/A
Airport Santorini International Airport (LGSR)
Time Latitude Longitude Altitude Speed Heading
2026-05-01 12:03 43.66426 7.21227 32 ft 0 kts 343°
2026-05-01 12:23 43.66419 7.21230 32 ft 2 kts 343°
2026-05-01 12:23 43.66404 7.21236 32 ft 2 kts 343°
2026-05-01 12:24 43.66390 7.21241 32 ft 2 kts 343°
2026-05-01 12:24 43.66376 7.21247 32 ft 2 kts 343°
2026-05-01 12:24 43.66361 7.21253 31 ft 2 kts 343°
2026-05-01 12:24 43.66346 7.21259 31 ft 2 kts 343°
2026-05-01 12:25 43.66339 7.21262 31 ft 1 kts 338°
2026-05-01 12:25 43.66334 7.21277 31 ft 1 kts 257°
2026-05-01 12:25 43.66335 7.21281 31 ft 0 kts 260°
2026-05-01 12:29 43.66331 7.21240 31 ft 7 kts 261°
2026-05-01 12:29 43.66322 7.21161 32 ft 9 kts 261°
2026-05-01 12:29 43.66270 7.21001 32 ft 11 kts 175°
2026-05-01 12:30 43.66095 7.21040 30 ft 14 kts 170°
2026-05-01 12:30 43.65998 7.21063 30 ft 11 kts 162°
2026-05-01 12:30 43.65916 7.21084 29 ft 13 kts 204°
2026-05-01 12:31 43.65843 7.20993 28 ft 14 kts 224°
2026-05-01 12:31 43.65774 7.20899 28 ft 14 kts 224°
2026-05-01 12:31 43.65699 7.20796 27 ft 16 kts 225°
2026-05-01 12:31 43.65628 7.20697 27 ft 13 kts 225°
2026-05-01 12:32 43.65554 7.20596 25 ft 16 kts 225°
2026-05-01 12:32 43.65396 7.20377 23 ft 15 kts 225°
2026-05-01 12:32 43.65324 7.20298 23 ft 12 kts 197°
2026-05-01 12:33 43.65242 7.20343 22 ft 14 kts 132°
2026-05-01 12:33 43.65173 7.20441 22 ft 12 kts 134°
2026-05-01 12:33 43.65097 7.20508 22 ft 13 kts 169°
2026-05-01 12:33 43.65004 7.20476 21 ft 14 kts 218°
2026-05-01 12:34 43.64926 7.20371 21 ft 16 kts 224°
2026-05-01 12:34 43.64843 7.20257 20 ft 17 kts 225°
2026-05-01 12:34 43.64763 7.20186 20 ft 12 kts 179°
2026-05-01 12:34 43.64708 7.20252 20 ft 10 kts 97°
2026-05-01 12:35 43.64754 7.20355 20 ft 28 kts 44°
2026-05-01 12:35 43.65075 7.20798 22 ft 98 kts 45°
2026-05-01 12:35 43.65707 7.21664 30 ft 154 kts 47°
2026-05-01 12:35 43.66523 7.22781 411 ft 169 kts 48°
2026-05-01 12:36 43.67096 7.24154 1029 ft 171 kts 84°
2026-05-01 12:36 43.66816 7.25699 1738 ft 174 kts 124°
2026-05-01 12:36 43.65882 7.26779 2375 ft 185 kts 140°
2026-05-01 12:36 43.64806 7.27863 2847 ft 202 kts 138°
2026-05-01 12:37 43.63673 7.29162 3421 ft 217 kts 135°
2026-05-01 12:37 43.62566 7.30556 4187 ft 218 kts 133°
2026-05-01 12:37 43.61488 7.31986 4897 ft 221 kts 132°
2026-05-01 12:37 43.60386 7.33460 5637 ft 225 kts 137°
2026-05-01 12:38 43.59060 7.34640 6379 ft 232 kts 153°
2026-05-01 12:38 43.57555 7.35460 7110 ft 237 kts 157°
2026-05-01 12:38 43.56007 7.36219 7847 ft 241 kts 158°
2026-05-01 12:38 43.54426 7.36992 8592 ft 245 kts 157°
2026-05-01 12:39 43.52819 7.37791 9332 ft 248 kts 157°
2026-05-01 12:39 43.51194 7.38607 10039 ft 252 kts 157°
2026-05-01 12:39 43.49597 7.39691 10444 ft 265 kts 136°
2026-05-01 12:39 43.48427 7.41708 10857 ft 278 kts 118°
2026-05-01 12:40 43.47422 7.44049 11216 ft 295 kts 117°
2026-05-01 12:40 43.46354 7.46521 11573 ft 313 kts 118°
2026-05-01 12:40 43.45172 7.49131 11902 ft 331 kts 120°
2026-05-01 12:40 43.43887 7.51863 12263 ft 347 kts 121°
2026-05-01 12:41 43.42544 7.54652 12876 ft 354 kts 121°
2026-05-01 12:41 43.41176 7.57457 13597 ft 356 kts 121°
2026-05-01 12:41 43.39780 7.60295 14330 ft 359 kts 121°
2026-05-01 12:41 43.38392 7.63107 15011 ft 362 kts 121°
2026-05-01 12:42 43.36980 7.65967 15661 ft 365 kts 122°
2026-05-01 12:42 43.35541 7.68872 16309 ft 368 kts 121°
2026-05-01 12:42 43.34101 7.71775 16957 ft 370 kts 121°
2026-05-01 12:42 43.32655 7.74690 17591 ft 373 kts 121°
2026-05-01 12:43 43.31195 7.77623 18205 ft 376 kts 121°
2026-05-01 12:43 43.29723 7.80583 18778 ft 380 kts 121°
2026-05-01 12:43 43.28231 7.83583 19319 ft 383 kts 121°
2026-05-01 12:43 43.26725 7.86606 19874 ft 387 kts 121°
2026-05-01 12:44 43.25199 7.89662 20398 ft 391 kts 121°
2026-05-01 12:44 43.23662 7.92739 20919 ft 394 kts 121°
2026-05-01 12:44 43.20548 7.98962 21926 ft 401 kts 121°
2026-05-01 12:45 43.17370 8.05300 22867 ft 408 kts 121°
2026-05-01 12:45 43.15758 8.08512 23305 ft 412 kts 121°
2026-05-01 12:45 43.14128 8.11753 23751 ft 415 kts 121°
2026-05-01 12:46 43.12485 8.15015 24180 ft 419 kts 121°
2026-05-01 12:46 43.10836 8.18290 24591 ft 422 kts 121°
2026-05-01 12:46 43.09172 8.21591 25006 ft 425 kts 121°
2026-05-01 12:46 43.07503 8.24899 25396 ft 429 kts 121°
2026-05-01 12:47 43.05807 8.28254 25779 ft 432 kts 121°
2026-05-01 12:47 43.04086 8.31650 26173 ft 435 kts 121°
2026-05-01 12:47 43.02361 8.35091 26554 ft 438 kts 120°
2026-05-01 12:47 43.00772 8.38581 26921 ft 440 kts 116°
2026-05-01 12:48 42.99287 8.42253 27277 ft 442 kts 114°
2026-05-01 12:48 42.97828 8.45987 27620 ft 446 kts 114°
2026-05-01 12:48 42.96382 8.49694 27950 ft 450 kts 114°
2026-05-01 12:48 42.94911 8.53465 28271 ft 453 kts 114°
2026-05-01 12:49 42.93427 8.57253 28630 ft 456 kts 114°
2026-05-01 12:49 42.91930 8.61059 28940 ft 460 kts 114°
2026-05-01 12:49 42.90411 8.64917 29269 ft 463 kts 114°
2026-05-01 12:49 42.88882 8.68794 29717 ft 462 kts 115°
2026-05-01 12:50 42.87365 8.72625 30168 ft 462 kts 115°
2026-05-01 12:50 42.85831 8.76489 30585 ft 462 kts 115°
2026-05-01 12:50 42.84313 8.80312 30965 ft 462 kts 115°
2026-05-01 12:50 42.82767 8.84198 31344 ft 463 kts 115°
2026-05-01 12:51 42.81238 8.88039 31758 ft 462 kts 115°
2026-05-01 12:51 42.79714 8.91863 32159 ft 461 kts 115°
2026-05-01 12:51 42.76680 8.99470 32927 ft 460 kts 115°
2026-05-01 12:52 42.75136 9.03333 33304 ft 460 kts 115°
2026-05-01 12:52 42.72092 9.10925 34058 ft 458 kts 115°
2026-05-01 12:52 42.70577 9.14697 34407 ft 458 kts 115°
2026-05-01 12:53 42.67532 9.22269 34928 ft 459 kts 115°
2026-05-01 12:53 42.65992 9.26092 35152 ft 461 kts 115°
2026-05-01 12:53 42.64463 9.29888 35401 ft 462 kts 115°
2026-05-01 12:54 42.62912 9.33727 35647 ft 462 kts 115°
2026-05-01 12:54 42.59835 9.41330 36047 ft 465 kts 115°
2026-05-01 12:54 42.58312 9.45222 36218 ft 466 kts 112°
2026-05-01 12:55 42.55782 9.53247 36573 ft 465 kts 105°
2026-05-01 12:55 42.54688 9.57407 36785 ft 466 kts 105°
2026-05-01 12:55 42.53620 9.61527 36969 ft 468 kts 104°
2026-05-01 12:56 42.52538 9.65665 37183 ft 469 kts 105°
2026-05-01 12:56 42.50415 9.74054 37264 ft 471 kts 102°
2026-05-01 12:57 42.48695 9.82590 37261 ft 471 kts 102°
2026-05-01 12:57 42.45160 9.95037 37264 ft 477 kts 112°
2026-05-01 12:58 42.42156 10.03038 37243 ft 477 kts 112°
2026-05-01 12:59 42.37618 10.15007 37263 ft 478 kts 113°
2026-05-01 12:59 42.33075 10.26974 37259 ft 478 kts 112°
2026-05-01 13:00 42.28532 10.38910 37235 ft 480 kts 112°
2026-05-01 13:01 42.23942 10.50915 37234 ft 481 kts 112°
2026-05-01 13:02 42.19328 10.62929 37217 ft 482 kts 112°
2026-05-01 13:07 41.85076 11.50607 37187 ft 481 kts 112°
2026-05-01 13:08 41.81954 11.58479 37177 ft 484 kts 112°
2026-05-01 13:08 41.78790 11.66423 37175 ft 482 kts 113°
2026-05-01 13:09 41.75630 11.74335 37176 ft 482 kts 114°
2026-05-01 13:09 41.72463 11.82252 37162 ft 484 kts 113°
2026-05-01 13:10 41.69285 11.90164 37170 ft 483 kts 113°
2026-05-01 13:10 41.66112 11.98046 37174 ft 484 kts 113°
2026-05-01 13:11 41.62925 12.05948 37169 ft 484 kts 113°
2026-05-01 13:11 41.59729 12.13852 37170 ft 484 kts 114°
2026-05-01 13:12 41.56536 12.21720 37165 ft 484 kts 114°
2026-05-01 13:12 41.53328 12.29606 37168 ft 485 kts 114°
2026-05-01 13:13 41.50109 12.37495 37173 ft 486 kts 114°
2026-05-01 13:13 41.46886 12.45364 37178 ft 484 kts 114°
2026-05-01 13:14 41.43668 12.53216 37172 ft 484 kts 114°
2026-05-01 13:14 41.40442 12.61066 37171 ft 485 kts 115°
2026-05-01 13:15 41.37211 12.68896 37172 ft 484 kts 115°
2026-05-01 13:15 41.33964 12.76756 37187 ft 486 kts 115°
2026-05-01 13:16 41.30692 12.84642 37162 ft 486 kts 115°
2026-05-01 13:16 41.27425 12.92513 37168 ft 486 kts 115°
2026-05-01 13:17 41.20877 13.08203 37176 ft 486 kts 116°
2026-05-01 13:18 41.15969 13.19920 37192 ft 487 kts 116°
2026-05-01 13:18 41.12661 13.27789 37188 ft 489 kts 116°
2026-05-01 13:19 41.09352 13.35637 37189 ft 490 kts 117°